Regional Weather Roundup
Issued by NWS

Home | Current Version | Previous Version | Graphics & Text | Print | Product List | Glossary On
Versions: 1 2 3 4 5 6 7 8 9 10 11 12 13 14 15 16 17 18 19 20 21 22 23 24 25 26 27 28 29 30 31 32 33 34 35 36 37 38 39 40 41 42 43 44 45 46 47 48 49 50
000
ASUS43 KLOT 311900
RWRIL

ILLINOIS REGIONAL WEATHER ROUNDUP
NATIONAL WEATHER SERVICE CHICAGO/ROMEOVILLE IL
200 PM CDT THU JUL 31 2014

NOTE: "FAIR" INDICATES FEW OR NO CLOUDS BELOW 12,000 FEET WITH NO
SIGNIFICANT WEATHER AND/OR OBSTRUCTIONS TO VISIBILITY.

* THESE STATIONS ARE NOT UNDER NWS QUALITY CONTROL. THEY ALSO MAY NOT
  REPORT WEATHER SUCH AS PRECIPITATION OR FOG.

ILZ001-002-007-009-015-016-024-312000-
NORTHWEST ILLINOIS

CITY           SKY/WX    TMP DP  RH WIND       PRES   REMARKS
MOLINE         MOSUNNY   82  60  47 W10G17    30.06F HX  82
STERLING*      MOSUNNY   82  63  51 W12G20    30.06S HX  83
$$

ILZ003-004-008-010-011-017-018-312000-
NORTH CENTRAL ILLINOIS

CITY           SKY/WX    TMP DP  RH WIND       PRES   REMARKS
ROCKFORD       MOSUNNY   82  56  40 W15       30.05F HX  82
$$

ILZ005-006-012>014-019>023-312000-
NORTHEAST ILLINOIS

CITY           SKY/WX    TMP DP  RH WIND       PRES   REMARKS
CHICAGO-OHARE  MOSUNNY   84  54  35 W14       30.03S HX  83
CHICAGO-MIDWAY MOSUNNY   84  58  40 VRB7      30.03F HX  83
AURORA         MOSUNNY   81  60  48 W13       30.05F HX  82
WAUKEGAN       MOSUNNY   82  58  43 VRB6      30.01F HX  82
DUPAGE AIRPORT MOSUNNY   82  57  42 W13       30.04S HX  82
WHEELING       MOSUNNY   83  55  38 W10G21    30.04S HX  82
NORTHERLY ISL    N/A     80  52  37 W10         N/A  HX  80
$$

LMZ740>746-312000-
SOUTHERN LAKE MICHIGAN

STATION/POSITION SKY/WX   TEMP    WIND        PRES    VSBY  WAVE
                          AIR SEA DIR/SP/G                  HT/PER
                          (F)     (DEG/KT/KT) (MB)    (MI)  (FT/S)
SOUTHERN BUOY              64 63  210/  6/  6 1016.9F         1
WAUKEGAN HARBOR            79     270/ 11/ 17   N/A
HARRISON CRIB              77     250/ 11/ 15   N/A
BURNHAM HARBOR             81     260/ 11/ 15   N/A
CALUMET HARBOR             81     230/  6/ 13 1015.8F
MICHIGAN CITY              72     240/  7/  9   N/A
MICHIGAN CITY 6N           73 71  240/  2/  4   N/A           1
ST. JOSEPH                 70 69  220/  6/  8   N/A           1/ 3
$$

ILZ025>027-034>036-040-047-049-050-058-095>099-312000-
WEST-CENTRAL ILLINOIS

CITY           SKY/WX    TMP DP  RH WIND       PRES   REMARKS
QUINCY         MOSUNNY   80  59  48 CALM      30.09F HX  81
$$

ILZ028>032-037-038-041>044-048-051>054-059>061-312000-
CENTRAL ILLINOIS

CITY           SKY/WX    TMP DP  RH WIND       PRES   REMARKS
DECATUR        MOSUNNY   81  60  48 SW8       30.09F HX  82
PEORIA         MOSUNNY   84  59  42 SW7       30.08S HX  84
SPRINGFIELD    MOSUNNY   83  61  47 W6        30.09F HX  83
TAYLORVILLE    NOT AVBL
$$

ILZ033-039-045-046-055>057-062-063-312000-
EAST-CENTRAL ILLINOIS

CITY           SKY/WX    TMP DP  RH WIND       PRES   REMARKS
CHAMPAIGN      SUNNY     80  58  46 VRB3      30.09F HX  80
MATTOON        MOSUNNY   80  60  50 MISG      30.08F HX  81
$$

ILZ079-100>102-312000-
SOUTHWEST ILLINOIS

CITY           SKY/WX    TMP DP  RH WIND       PRES   REMARKS
ALTON          MOSUNNY   82  61  47 E6        30.09F HX  83
CAHOKIA*       PTSUNNY   85  58  39 VRB3      30.07F HX  84
$$

ILZ064>066-069>071-074>076-080>082-084>086-088>090-092>094-312000-
SOUTH-CENTRAL ILLINOIS

CITY           SKY/WX    TMP DP  RH WIND       PRES   REMARKS
CARBONDALE     PTSUNNY   84  60  44 VRB5      30.08F HX  84
MARION         PTSUNNY   82  61  47 S6        30.10F HX  83
MT. VERNON     MOSUNNY   82  63  51 S5        30.10S HX  83
$$

ILZ067-068-072-073-078-083-087-091-312000-
SOUTHEAST ILLINOIS

CITY           SKY/WX    TMP DP  RH WIND       PRES   REMARKS
LAWRENCEVILLE  MOSUNNY   82  63  52 W7        30.09F HX  83
$$

ABBREVIATIONS USED IN REMARKS
   TC - TEMPERATURE IN CELSIUS
  WCI - WIND CHILL INDEX
   HX - HEAT INDEX
  VSB - VISIBILITY
$$



USA.gov is the U.S. government's official web portal to all federal, state and local government web resources and services.